This demonstration page uses our WeatherBlox Daily Observations layout. Learn more.

Left ArrowRight Arrow

39.01783, -85.05884

Hourly Observations for August 31, 2021

Temp ( °F °C ) Dew Point ( °F °C ) Humidity (%) Winds ( mph kmh ) Pressure ( in mb ) Visibility ( mi km ) Precip ( " mm )
12:29 am 00:29 Cloudy 71 21.7 68 20 90 90 SSW 6 9 29.90 1013 10 16 0.00 0.00
12:42 am 00:42 Cloudy 71 21.7 68 20 90 90 SSW 6 9 29.89 1012 10 16 0.00 0.00
12:52 am 00:52 Cloudy 71 21.7 68 20 90 90 SSW 5 7 29.90 1012 10 16 0.00 0.00
1:52 am 01:52 Cloudy 71 21.7 68 20 90 90 SW 3 6 29.89 1012 9 14 0.00 0.00
2:52 am 02:52 Cloudy 70 21.1 68 20 93 93 SW 3 6 29.87 1012 9 14 0.00 0.00
3:31 am 03:31 Cloudy 71 21.7 68 20 90 90 Calm 29.86 1011 8 13 0.00 0.00
3:45 am 03:45 Cloudy 71 21.7 68 20 90 90 S 3 6 29.86 1011 8 13 0.00 0.00
3:52 am 03:52 Cloudy 70 21.1 68 20 93 93 S 6 9 29.86 1011 8 13 0.00 0.00
4:52 am 04:52 Cloudy 71 21.7 68 20 90 90 Calm 29.83 1010 7 11 0.00 0.00
5:52 am 05:52 Cloudy 71 21.7 68 20 90 90 Calm 29.81 1009 8 13 0.00 0.00
6:13 am 06:13 Cloudy 71 21.7 67 19.4 87 87 Calm 29.80 1009 9 14 0.00 0.00
6:35 am 06:35 Mostly Cloudy 70 21.1 68 20 93 93 SW 3 6 29.80 1009 7 11 0.00 0.00
6:52 am 06:52 Cloudy 71 21.7 68 20 90 90 Calm 29.80 1009 8 13 0.00 0.00
7:52 am 07:52 Cloudy with Mist and Fog 71 21.7 68 20 90 90 SE 8 13 29.80 1009 6 10 0.00 0.00
8:09 am 08:09 Cloudy with Mist and Fog 71 21.7 68 20 90 90 SSE 7 11 29.81 1010 6 10 0.00 0.00
8:37 am 08:37 Cloudy with Mist and Fog 71 21.7 68 20 90 90 SSE 8 13 29.81 1010 6 10 0.00 0.00
8:52 am 08:52 Cloudy 71 21.7 68 20 90 90 S 3 6 29.82 1010 7 11 0.00 0.00
9:52 am 09:52 Cloudy 72 22.2 67 19.4 84 84 E 5 7 29.83 1010 8 13 0.00 0.00
10:52 am 10:52 Cloudy 73 22.8 68 20 84 84 SSE 7 11 29.83 1010 9 14 0.00 0.00
11:52 am 11:52 Cloudy 74 23.3 68 20 82 82 SSE 6 9 29.80 1009 10 16 0.00 0.00
11:57 am 11:57 Cloudy 75 23.9 68 20 79 79 SE 7 11 29.80 1009 10 16 0.00 0.00
12:52 pm 12:52 Cloudy 76 24.4 67 19.4 74 74 E 7 11 29.79 1009 10 16 0.00 0.00
1:52 pm 13:52 Cloudy 76 24.4 67 19.4 74 74 ESE 9 15 29.76 1008 10 16 0.00 0.00
2:52 pm 14:52 Cloudy 76 24.4 67 19.4 74 74 ESE 8 13 29.75 1008 10 16 0.00 0.00
3:52 pm 15:52 Cloudy with Light Rain 76 24.4 67 19.4 74 74 ESE 7 11 29.74 1007 10 16 0.00 0.00
4:52 pm 16:52 Cloudy with Rain 72 22.2 67 19.4 84 84 SE 13 20 29.73 1007 9 14 0.03 0.76
5:04 pm 17:04 Cloudy with Light Rain 72 22.2 67 19.4 84 84 ESE 9 15 29.72 1006 6 10 0.02 0.51
5:52 pm 17:52 Cloudy with Rain 71 21.7 66 18.9 84 84 E 8 13 29.72 1006 6 10 0.10 2.54
6:52 pm 18:52 Cloudy with Light Rain 71 21.7 67 19.4 87 87 ENE 7 11 29.70 1006 9 14 0.04 1.02
7:22 pm 19:22 Cloudy with Light Rain 71 21.7 67 19.4 87 87 NE 8 13 29.70 1006 8 13 0.02 0.51
7:52 pm 19:52 Cloudy with Light Rain 71 21.7 68 20 90 90 NNE 9 15 29.70 1006 8 13 0.03 0.76
8:47 pm 20:47 Cloudy with Light Rain 72 22 66 19 83 83 NNE 12 19 29.69 1005 10 16 0.01 0.25
8:52 pm 20:52 Cloudy with Light Rain 70 21.1 67 19.4 90 90 NNE 10 17 29.69 1005 10 16 0.01 0.25
9:18 pm 21:18 Cloudy 70 21.1 67 19.4 90 90 NNE 12 19 29.69 1006 10 16 0.00 0.00
9:52 pm 21:52 Cloudy 70 21.1 67 19.4 90 90 NNE 10 17 29.69 1005 10 16 0.00 0.00
10:18 pm 22:18 Cloudy 70 21.1 66 18.9 87 87 NNE 10 17 29.68 1005 10 16 0.00 0.00
10:52 pm 22:52 Cloudy 71 21.7 67 19.4 87 87 NE 10 17 29.68 1005 10 16 0.00 0.00
11:22 pm 23:22 Cloudy with Light Rain 71 21.7 67 19.4 87 87 NE 12 19 29.67 1005 10 16 0.00 0.00
11:52 pm 23:52 Cloudy with Light Rain 71 21.7 67 19.4 87 87 NNE 14 22 29.67 1005 10 16 0.00 0.00

Powered by AerisWeather